RISAT-2BR2 (46905 NORAD) Tracking and Keplerian Element Data
This shows tracking and keplerian element data for the satellite.
Feedback or suggestion? Click here.
Element | Value |
Catalog | 46905 |
Name | RISAT-2BR2 |
Epoch Orbit | 1073 |
Epoch Day | 17.95563859 |
Epoch Year | 2021 |
RAAN | 37.1437 |
Inclination | 36.9022 |
Eccentricity | 0.0004932 |
Argument of Perigee | 179.5349 |
Mean Anonmoly | 180.5397 |
Mean Motion | 14.98197156 |
Decay Rate | 2.31E-06 |
L1 | 1 46905U 20081A 21017.95563859 .00000231 00000-0 25431-4 0 9991 |
L2 | 2 46905 36.9022 37.1437 0004932 179.5349 180.5397 14.98197156 10734 |
Live tracking and technical data element details for RISAT-2BR2 (NORAD 46905). RISAT-2BR2 can be tracked NOW for your location showing map with azimuth and elevation plus other details from your city location.
Track the satellite on the map from your city or location and see movement details for azimuth, elevation, latitude, longitude, range, height, and movement on the map or in text.
IsCatalogInMostPopularTable: catalog: 46905, numindb: 35
Update: records affected: 1
GetName: 46905 RISAT-2BR2
Hit Count: updated at: Mon, 18 Jan 2021 15:52:08 GMT